Location: Unspecified
(40.7945°N, 111.1337°W)
Time: 14:50:44
(UTC-06:00)

ISS - Visible Passes

Search period start: 19 May 2019 00:00
Search period end: 29 May 2019 00:00
Orbit: 407 x 410 km, 51.6° (Epoch: 20 May)

Date Brightness Start Highest point End Pass type
(mag) Time Alt. Az. Time Alt. Az. Time Alt. Az.
19 May -0.6 00:13:12 10° NW 00:15:16 15° NNW 00:17:19 10° NNE visible
19 May -0.5 01:51:09 10° NNW 01:52:53 13° N 01:54:38 10° NE visible
19 May -2.0 03:27:12 10° NW 03:30:14 32° NNE 03:33:15 10° E visible
19 May -3.1 05:03:49 10° WNW 05:06:47 31° SW 05:09:44 10° SSE visible
19 May -3.9 21:43:54 10° SW 21:47:11 90° SE 21:50:29 10° NE visible
19 May -0.9 23:21:41 10° WNW 23:24:08 19° NNW 23:26:35 10° NNE visible
20 May -0.4 01:00:09 10° NNW 01:01:41 13° N 01:03:14 10° NNE visible
20 May -1.3 02:36:29 10° NNW 02:39:11 23° NNE 02:41:53 10° ENE visible
20 May -3.9 04:12:44 10° WNW 04:15:59 60° SW 04:19:13 10° SE visible
20 May -1.4 22:30:13 10° W 22:33:02 26° NNW 22:35:52 10° NE visible
21 May -0.4 00:08:54 10° NNW 00:10:28 13° N 00:12:04 10° NNE visible
21 May -0.8 01:45:45 10° NNW 01:47:36 17° N 01:47:36 17° N visible
21 May -2.2 21:38:54 10° W 21:42:00 38° NNW 21:45:07 10° NE visible
21 May -0.6 23:17:24 10° NW 23:19:16 14° N 23:21:08 10° NNE visible
22 May -0.7 00:54:58 10° NNW 00:56:53 14° N 00:57:39 14° NNE visible
22 May -0.7 22:25:50 10° WNW 22:28:05 17° NNW 22:30:20 10° NNE visible
23 May -0.6 00:04:04 10° NNW 00:05:40 13° N 00:07:17 10° NE visible
23 May -0.7 01:40:13 10° NW 01:40:45 13° NNW 01:40:45 13° NNW visible
23 May -1.1 21:34:17 10° WNW 21:36:55 22° NNW 21:39:34 10° NNE visible
23 May -0.6 23:12:54 10° NNW 23:14:26 13° N 23:15:57 10° NNE visible
24 May -1.0 00:49:27 10° NNW 00:51:16 18° N 00:51:16 18° N visible
24 May -0.7 22:21:29 10° NW 22:23:10 13° N 22:24:52 10° NNE visible
24 May -1.0 23:58:41 10° NNW 00:00:47 16° NNE 00:01:50 14° NE visible
25 May -0.8 21:29:53 10° NW 21:31:55 15° NNW 21:33:58 10° NNE visible
25 May -0.8 23:07:48 10° NNW 23:09:32 14° N 23:11:17 10° NE visible
26 May -1.1 00:43:51 10° NW 00:45:09 20° NNW 00:45:09 20° NNW visible
26 May -0.8 22:16:44 10° NNW 22:18:16 13° N 22:19:48 10° NNE visible
26 May -1.6 23:53:02 10° NNW 23:55:45 23° NNE 23:55:47 23° NNE visible
27 May -0.8 21:25:24 10° NNW 21:26:58 13° N 21:28:33 10° NNE visible
27 May -1.2 23:02:14 10° NNW 23:04:33 17° NNE 23:06:26 12° NE visible
28 May -1.1 00:38:16 10° NW 00:39:09 17° NW 00:39:09 17° NW visible
28 May -1.0 22:11:22 10° NNW 22:13:17 14° N 22:15:12 10° NE visible
28 May -2.3 23:47:23 10° NW 23:49:49 35° N 23:49:49 35° N visible
